Weather History for NZCH - June, 2013

Change the Weather History Date:

Wednesday, June 19, 2013

  Actual Average Record
Temperature  
Mean Temperature 46 °F -  
Max Temperature 48 °F 51 °F 60 °F (2004)
Min Temperature 42 °F 32 °F 24 °F (2008)
Degree Days  
Heating Degree Days 19    
Moisture  
Dew Point 45 °F    
Average Humidity 97    
Maximum Humidity 100    
Minimum Humidity 93    
Precipitation  
Precipitation 0.00 in - - ()
Sea Level Pressure  
Sea Level Pressure 29.25 in    
Wind  
Wind Speed 5 mph ()    
Max Wind Speed 8 mph    
Max Gust Speed -    
Visibility 5.6 miles    
Events Rain    
Averages and records for this station are not official NWS values.
T = Trace of Precipitation, MM = Missing Value Source: Averaged Metar Reports

Daily Weather History Graph

Daily Weather History Graph

Search for Another Location

Airport or City:

Trip Planner

Search our weather history database for the weather conditions in past years. The results will help you decide how hot, cold, wet, or windy it might be!

Date:

Astronomy

Jun. 19, 2013 Rise Set
Actual Time 8:02 AM NZST 4:59 PM NZST
Civil Twilight 7:29 AM NZST 5:32 PM NZST
Nautical Twilight 6:53 AM NZST 6:08 PM NZST
Astronomical Twilight 6:18 AM NZST 6:43 PM NZST
Moon 1:32 PM NZST (6/19) 2:33 AM NZST (6/19)
Length of Visible Light 10h 02m
Length of Day
8h 56m
Waxing Gibbous, 74% of the Moon is Illuminated
Jun 19
Waxing Gibbous
Jun 23
Full
Jun 30
Last Quarter
Jul 8
New
Jul 16
First Quarter

Hourly Weather History & Observations

Time (NZST) Temp. Windchill Dew Point Humidity Pressure Visibility Wind Dir Wind Speed Gust Speed Precip Events Conditions
12:00 AM 48.2 °F - 46.4 °F 93% 29.36 in 6.2 mi South 3.5 mph - N/A   Overcast
1:00 AM 48.2 °F - 46.4 °F 93% 29.36 in 6.2 mi WSW 4.6 mph - N/A   Overcast
2:00 AM 46.4 °F 43.5 °F 44.6 °F 93% 29.33 in 6.2 mi WSW 5.8 mph - N/A   Overcast
3:00 AM 46.4 °F 42.4 °F 44.6 °F 93% 29.33 in 6.2 mi SW 8.1 mph - N/A   Overcast
4:00 AM 46.4 °F 43.5 °F 44.6 °F 93% 29.33 in 6.2 mi WSW 5.8 mph - N/A   Mostly Cloudy
5:00 AM 44.6 °F 40.2 °F 44.6 °F 100% 29.33 in 6.2 mi WSW 8.1 mph - N/A   Mostly Cloudy
5:15 AM 44.6 °F 40.2 °F 44.6 °F 100% 29.33 in 6.2 mi WSW 8.1 mph - N/A   Mostly Cloudy
6:00 AM 44.6 °F 41.4 °F 44.6 °F 100% 29.33 in 6.2 mi SW 5.8 mph - N/A   Mostly Cloudy
7:00 AM 44.6 °F 42.2 °F 44.6 °F 100% 29.33 in 6.2 mi WSW 4.6 mph - N/A   Drizzle
7:05 AM 44.6 °F 43.1 °F 42.8 °F 93% 29.33 in 5.0 mi WSW 3.5 mph - N/A Rain Light Rain
8:00 AM 44.6 °F - 42.8 °F 93% 29.33 in 6.2 mi West 2.3 mph - N/A   Light Drizzle
9:00 AM 46.4 °F - 44.6 °F 93% 29.33 in 3.1 mi West 2.3 mph - N/A   Light Drizzle
10:00 AM 46.4 °F 42.9 °F 44.6 °F 93% 29.30 in 3.1 mi WSW 6.9 mph - N/A   Light Drizzle
11:00 AM 46.4 °F 43.5 °F 44.6 °F 93% 29.30 in 3.1 mi WSW 5.8 mph - N/A   Light Drizzle
12:00 PM 46.4 °F 42.9 °F 46.4 °F 100% 29.27 in 3.1 mi WSW 6.9 mph - N/A Rain Light Rain
1:00 PM 46.4 °F 43.5 °F 46.4 °F 100% 29.24 in 3.1 mi WSW 5.8 mph - N/A Rain Light Rain
2:00 PM 46.4 °F 44.3 °F 46.4 °F 100% 29.21 in 6.2 mi SW 4.6 mph - N/A Rain Light Rain
3:00 PM 46.4 °F 43.5 °F 46.4 °F 100% 29.18 in 6.2 mi SSW 5.8 mph - N/A Rain Light Rain
4:00 PM 46.4 °F 44.3 °F 46.4 °F 100% 29.18 in 6.2 mi SW 4.6 mph - N/A   Mostly Cloudy
5:00 PM 46.4 °F 45.2 °F 44.6 °F 93% 29.15 in 6.2 mi WSW 3.5 mph - N/A Rain Light Rain Showers
6:00 PM 44.6 °F 42.2 °F 44.6 °F 100% 29.15 in 6.2 mi SSW 4.6 mph - N/A Rain Rain
7:00 PM 44.6 °F 43.1 °F 44.6 °F 100% 29.15 in 6.2 mi WSW 3.5 mph - N/A Rain Light Rain
8:00 PM 44.6 °F 43.1 °F 44.6 °F 100% 29.12 in 6.2 mi West 3.5 mph - N/A Rain Light Rain
9:00 PM 44.6 °F 41.4 °F 44.6 °F 100% 29.12 in 6.2 mi SW 5.8 mph - N/A Rain Light Rain
10:00 PM 44.6 °F 40.2 °F 42.8 °F 93% 29.12 in 6.2 mi SW 8.1 mph - N/A Rain Light Rain
11:00 PM 42.8 °F 38.6 °F 41.0 °F 93% 29.12 in 6.2 mi WSW 6.9 mph - N/A Rain Rain